Weather History for KIDP - October, 2012

Change the Weather History Date:

Tuesday, October 30, 2012

  Actual Average (KCFV) Record (KCFV)
Temperature  
Mean Temperature 53 °F -  
Max Temperature 69 °F 62 °F 80 °F (2000)
Min Temperature 37 °F 43 °F 37 °F (1996)
Degree Days  
Heating Degree Days 12    
Growing Degree Days 3 (Base 50)    
Moisture  
Dew Point 35 °F    
Average Humidity 59    
Maximum Humidity 81    
Minimum Humidity 28    
Precipitation  
Precipitation 0.00 in - - ()
Sea Level Pressure  
Sea Level Pressure 29.98 in    
Wind  
Wind Speed 4 mph (ESE)    
Max Wind Speed 14 mph    
Max Gust Speed 14 mph    
Visibility 9 miles    
Events      
Averages and records for this station are not official NWS values.
T = Trace of Precipitation, MM = Missing Value Source: NWS Daily Summary

Daily Weather History Graph

Daily Weather History Graph

Search for Another Location

Airport or City:

Trip Planner

Search our weather history database for the weather conditions in past years. The results will help you decide how hot, cold, wet, or windy it might be!

Date:

Astronomy

Oct. 30, 2012 Rise Set
Actual Time 7:45 AM CDT 6:26 PM CDT
Civil Twilight 7:19 AM CDT 6:53 PM CDT
Nautical Twilight 6:48 AM CDT 7:24 PM CDT
Astronomical Twilight 6:18 AM CDT 7:54 PM CDT
Moon 6:59 PM CDT (10/30) 8:31 AM CDT (10/30)
Length of Visible Light 11h 34m
Length of Day
10h 41m
Full, 99% of the Moon is Illuminated
Oct 30
Full
Nov 6
Last Quarter
Nov 13
New
Nov 20
First Quarter
Nov 28
Full

Hourly Weather History & Observations

Time (CDT) Temp. Windchill Dew Point Humidity Pressure Visibility Wind Dir Wind Speed Gust Speed Precip Events Conditions
12:15 AM 42.8 °F 41.1 °F 32.0 °F 66% 30.09 in 10.0 mi South 3.5 mph - N/A   Clear
12:35 AM 41.0 °F - 32.0 °F 70% 30.09 in 10.0 mi Calm Calm - N/A   Clear
12:55 AM 41.0 °F - 32.0 °F 70% 30.08 in 10.0 mi Calm Calm - N/A   Clear
1:15 AM 42.8 °F - 32.0 °F 66% 30.08 in 10.0 mi Calm Calm - N/A   Clear
1:35 AM 41.0 °F - 32.0 °F 70% 30.07 in 10.0 mi Calm Calm - N/A   Clear
1:55 AM 41.0 °F - 32.0 °F 70% 30.07 in 10.0 mi Calm Calm - N/A   Clear
2:55 AM 39.2 °F - 32.0 °F 75% 30.08 in 10.0 mi Calm Calm - N/A   Clear
3:15 AM 37.4 °F - 32.0 °F 81% 30.07 in 10.0 mi Calm Calm - N/A   Clear
3:55 AM 37.4 °F - 32.0 °F 81% 30.07 in 10.0 mi Calm Calm - N/A   Clear
4:15 AM 37.4 °F - 32.0 °F 81% 30.06 in 10.0 mi Calm Calm - N/A   Clear
4:35 AM 37.4 °F - 32.0 °F 81% 30.06 in 10.0 mi Calm Calm - N/A   Clear
4:55 AM 37.4 °F - 32.0 °F 81% 30.05 in 10.0 mi Calm Calm - N/A   Clear
5:15 AM 37.4 °F - 32.0 °F 81% 30.05 in 10.0 mi Calm Calm - N/A   Clear
5:35 AM 37.4 °F - 32.0 °F 81% 30.04 in 10.0 mi Calm Calm - N/A   Clear
5:55 AM 37.4 °F 34.9 °F 32.0 °F 81% 30.04 in 10.0 mi South 3.5 mph - N/A   Clear
6:15 AM 37.4 °F 34.9 °F 32.0 °F 81% 30.03 in 10.0 mi SSE 3.5 mph - N/A   Clear
6:35 AM 37.4 °F 34.9 °F 32.0 °F 81% 30.03 in 10.0 mi SSE 3.5 mph - N/A   Clear
6:55 AM 37.4 °F 33.8 °F 32.0 °F 81% 30.03 in 10.0 mi SSE 4.6 mph - N/A   Clear
7:15 AM 37.4 °F 32.8 °F 32.0 °F 81% 30.03 in 10.0 mi SSE 5.8 mph - N/A   Scattered Clouds
7:35 AM 41.0 °F 37.1 °F 33.8 °F 76% 30.03 in 10.0 mi South 5.8 mph - N/A   Mostly Cloudy
7:55 AM 41.0 °F 37.1 °F 33.8 °F 76% 30.03 in 10.0 mi SSE 5.8 mph - N/A   Mostly Cloudy
8:35 AM 42.8 °F 39.3 °F 33.8 °F 70% 30.02 in 10.0 mi South 5.8 mph - N/A   Scattered Clouds
8:55 AM 42.8 °F 39.3 °F 35.6 °F 76% 30.02 in 10.0 mi South 5.8 mph - N/A   Scattered Clouds
9:15 AM 42.8 °F 38.0 °F 35.6 °F 76% 30.02 in 10.0 mi South 8.1 mph - N/A   Mostly Cloudy
9:35 AM 44.6 °F 40.7 °F 35.6 °F 71% 30.01 in 10.0 mi South 6.9 mph - N/A   Mostly Cloudy
9:55 AM 46.4 °F 43.5 °F 35.6 °F 66% 30.00 in 10.0 mi SSE 5.8 mph - N/A   Overcast
10:15 AM 50.0 °F - 35.6 °F 58% 30.00 in 10.0 mi South 6.9 mph - N/A   Scattered Clouds
10:35 AM 51.8 °F - 33.8 °F 50% 29.99 in 10.0 mi South 9.2 mph - N/A   Scattered Clouds
10:55 AM 53.6 °F - 33.8 °F 47% 29.99 in 10.0 mi SSE 8.1 mph - N/A   Scattered Clouds
11:15 AM 55.4 °F - 33.8 °F 44% 29.99 in 10.0 mi South 6.9 mph - N/A   Scattered Clouds
11:35 AM 57.2 °F - 33.8 °F 41% 29.98 in 10.0 mi South 6.9 mph - N/A   Scattered Clouds
11:55 AM 59.0 °F - 33.8 °F 39% 29.98 in 10.0 mi SSW 6.9 mph - N/A   Scattered Clouds
12:15 PM 60.8 °F - 35.6 °F 39% 29.97 in 10.0 mi South 4.6 mph - N/A   Unknown
12:35 PM 62.6 °F - 33.8 °F 34% 29.97 in 10.0 mi South 5.8 mph - N/A   Clear
12:55 PM 62.6 °F - 33.8 °F 34% 29.96 in 10.0 mi South 3.5 mph - N/A   Clear
1:15 PM 64.4 °F - 33.8 °F 32% 29.95 in 10.0 mi SE 5.8 mph - N/A   Clear
1:35 PM 64.4 °F - 33.8 °F 32% 29.94 in 10.0 mi East 5.8 mph - N/A   Clear
1:55 PM 66.2 °F - 35.6 °F 32% 29.92 in 10.0 mi Calm Calm - N/A   Clear
2:15 PM 68.0 °F - 35.6 °F 30% 29.91 in 10.0 mi SSE 5.8 mph - N/A   Clear
2:35 PM 68.0 °F - 35.6 °F 30% 29.91 in 10.0 mi East 5.8 mph - N/A   Clear
2:55 PM 69.8 °F - 35.6 °F 28% 29.90 in 10.0 mi SE 8.1 mph - N/A   Clear
3:15 PM 69.8 °F - 35.6 °F 28% 29.90 in 10.0 mi Calm Calm - N/A   Clear
3:35 PM 69.8 °F - 37.4 °F 31% 29.90 in 7.0 mi East 3.5 mph - N/A   Clear
3:55 PM 69.8 °F - 37.4 °F 31% 29.90 in 5.0 mi East 8.1 mph - N/A   Haze
4:15 PM 69.8 °F - 37.4 °F 31% 29.90 in 3.0 mi ENE 9.2 mph - N/A   Haze
4:35 PM 68.0 °F - 37.4 °F 33% 29.90 in 2.5 mi ENE 10.4 mph - N/A   Haze
4:55 PM 68.0 °F - 37.4 °F 33% 29.90 in 2.0 mi ENE 9.2 mph - N/A   Haze
5:15 PM 68.0 °F - 37.4 °F 33% 29.90 in 1.5 mi NE 11.5 mph - N/A   Haze
5:35 PM 62.6 °F - 39.2 °F 42% 29.90 in 10.0 mi ENE 10.4 mph 13.8 mph N/A   Clear
5:55 PM 62.6 °F - 39.2 °F 42% 29.91 in 10.0 mi ENE 11.5 mph - N/A   Clear
6:15 PM 60.8 °F - 39.2 °F 45% 29.92 in 10.0 mi NE 13.8 mph - N/A   Clear
6:35 PM 59.0 °F - 39.2 °F 48% 29.92 in 10.0 mi NE 12.7 mph - N/A   Clear
6:55 PM 57.2 °F - 37.4 °F 48% 29.93 in 10.0 mi NE 10.4 mph - N/A   Clear
7:15 PM 55.4 °F - 39.2 °F 54% 29.93 in 10.0 mi NE 9.2 mph - N/A   Clear
7:35 PM 53.6 °F - 39.2 °F 58% 29.94 in 7.0 mi NE 9.2 mph - N/A   Clear
7:55 PM 53.6 °F - 39.2 °F 58% 29.95 in 10.0 mi NE 5.8 mph - N/A   Clear
8:15 PM 50.0 °F - 37.4 °F 62% 29.95 in 10.0 mi NNE 5.8 mph - N/A   Clear
8:35 PM 50.0 °F - 37.4 °F 62% 29.95 in 10.0 mi NNE 8.1 mph - N/A   Clear
8:55 PM 48.2 °F - 37.4 °F 66% 29.95 in 10.0 mi NNE 9.2 mph - N/A   Clear
9:15 PM 48.2 °F - 37.4 °F 66% 29.96 in 10.0 mi NNE 8.1 mph - N/A   Clear
9:35 PM 48.2 °F - 37.4 °F 66% 29.97 in 10.0 mi NNE 9.2 mph - N/A   Clear
9:55 PM 46.4 °F 42.4 °F 37.4 °F 71% 29.97 in 10.0 mi NNE 8.1 mph - N/A   Clear
10:15 PM 46.4 °F 42.9 °F 37.4 °F 71% 29.98 in 10.0 mi NNE 6.9 mph - N/A   Clear
10:35 PM 44.6 °F 40.7 °F 37.4 °F 76% 29.98 in 10.0 mi NNE 6.9 mph - N/A   Clear
10:55 PM 46.4 °F 43.5 °F 35.6 °F 66% 29.97 in 10.0 mi NNE 5.8 mph - N/A   Clear
11:15 PM 44.6 °F 40.2 °F 35.6 °F 71% 29.97 in 10.0 mi NNE 8.1 mph - N/A   Clear
11:35 PM 42.8 °F 38.0 °F 35.6 °F 76% 29.97 in 10.0 mi NNE 8.1 mph - N/A   Clear
11:55 PM 42.8 °F 38.6 °F 35.6 °F 76% 29.97 in 10.0 mi NNE 6.9 mph - N/A   Clear